Weather in Svetloye

Russia / Altai Krai     52°54′30″N   81°03′26″E
temp.,
°C
wind,
m/s
gust,
m/s
humid.,
%
clouds,
%
prec.,
mm/h
press.,
hPa
HPBL,
m
26 july, mon
mon2601:00+20ssw1251100 0.0 100211
04:00+20wsw335896 0.0 100221
07:00+21wnw2260100 0.0 100239
10:00+23w346591 0.9 1002325
13:00+28wnw67490 0.9 10031513
16:00+27wnw894734 0.0 10041875
19:00+20nw7967100 0.1 1006947
22:00+18nw796896 0.0 1008902
27 july, tue
tue2701:00+19nnw475697 0.0 1008868
04:00+16n48660 0.0 1010535
07:00+10nnw38880 0.0 1011239
10:00+17n46450 0.0 1012924
13:00+21n56300 0.0 10111814
16:00+23n55305 0.0 10102249
19:00+21nnw873676 0.0 10101343
22:00+18n374497 0.0 1010215
28 july, wed
wed2801:00+15nne1151100 0.0 101117
04:00+12sw006212 0.0 101011
07:00+13w236297 0.0 1011101
10:00+17w2346100 0.0 1011638
13:00+21sw3434100 0.0 10102577
16:00+20nw323693 0.0 10101728
19:00+20nnw443636 0.0 10101710
22:00+14nnw22595 0.0 101113
29 july, thu
thu2901:00+11nnw11674 0.0 101110
04:00+10ne11720 0.0 101010
07:00+11sse22680 0.0 101119
10:00+20ssw11404 0.0 1010617
13:00+24nnw22285 0.0 10102094
16:00+25nw342685 0.0 10092890
19:00+25nw3426100 0.0 10082686
22:00+18nnw474516 0.0 100986
30 july, fri
fri3001:00+14n357465 0.0 101083
04:00+14nnw357296 0.0 101188
07:00+14nw34697 0.0 101192
10:00+21nnw44442 0.0 1012783
13:00+25nw44260 0.0 10122394
16:00+26wnw55256 0.0 10112779
19:00+24wnw64255 0.0 10122448
22:00+17nw334011 0.0 101421